Regional Weather Roundup
Issued by NWS Huntsville, AL

Home | Current Version | Previous Version | Text Only | Print | Product List | Glossary On
Versions: 1 2 3 4 5 6 7 8 9 10 11 12 13 14 15 16 17 18 19 20 21 22 23 24 25 26 27 28 29 30 31 32 33 34 35 36 37 38 39 40 41 42 43 44 45 46 47 48 49 50
000
ASUS44 KHUN 271910
RWRHUN

WEATHER ROUNDUP FOR THE TENNESSEE VALLEY
NATIONAL WEATHER SERVICE HUNTSVILLE AL
200 PM CDT WED AUG 27 2014

ALZ001>004-272000-
NORTHWEST ALABAMA

CITY           SKY/WX    TMP DP  RH WIND       PRES   REMARKS
SHOALS AIRPORT MOSUNNY   89  63  41 N6        30.09F HX  90
SHOALS TVA RES   N/A     88 N/A N/A MISG        N/A
$$

ALZ005>007-016-272000-
NORTH CENTRAL ALABAMA

CITY           SKY/WX    TMP DP  RH WIND       PRES   REMARKS
DECATUR AP     MOSUNNY   90  62  39 VRB3      30.09F HX  90
HUNTSVILLE AP  MOSUNNY   90  61  37 N5        30.08F HX  90
HUN NWS/UAH      N/A     90  59  35 VRB2        N/A
MERIDIANVILLE  SUNNY     90  54  29 S3        30.09F
REDSTONE ARSN  MOSUNNY   90  59  35 CALM      30.09F
VINEMONT AP    FAIR      87  61  41 N6        30.12F
$$

ALZ008>010-272000-
NORTHEAST ALABAMA

CITY           SKY/WX    TMP DP  RH WIND       PRES   REMARKS
ALBERTVILLE    MOSUNNY   86  68  54 CALM      30.10F
FORT PAYNE     PTSUNNY   82  57  42 N7        30.09F
SCOTTSBORO AP  SUNNY     86  64  48 W5        30.09F
SCOTTSBORO HCN   N/A     84 N/A N/A MISG        N/A
VALLEY HEAD      N/A     82 N/A N/A MISG        N/A
$$

TNZ076-096-097-272000-
SOUTHEASTERN MIDDLE TENNESSEE

CITY           SKY/WX    TMP DP  RH WIND       PRES   REMARKS
FAYETTEVILLE   SUNNY     84  66  54 E6        30.10F
TULLAHOMA      MOSUNNY   88  64  45 VRB6      30.10F
WINCHESTER       N/A     86  66  51 VRB3      30.09F
$$

...SURROUNDING SITES...

CITY           SKY/WX    TMP DP  RH WIND       PRES   REMARKS
ATLANTA        MOSUNNY   84  60  44 N8        30.09F
ANNISTON       MOSUNNY   88  60  38 VRB5      30.08F
BIRMINGHAM     MOSUNNY   90  55  30 NE10      30.10F
CHATTANOOGA    MOSUNNY   89  63  41 NE7       30.08F HX  90
CORINTH        FAIR      88  64  45 VRB5      30.08F
DALTON         MOSUNNY   84  64  51 CALM      30.09F
GADSDEN        MOSUNNY   90  55  31 E9        30.08F
GOLDEN TRNGL   MOSUNNY   90  63  40 N9        30.07F HX  90
HALEYVILLE     FAIR      89  64  43 N6        30.12F HX  90
JACKSON TN     PTSUNNY   89  71  55 E5        30.08F HX  95
LEWISBURG      FAIR      89  71  55 NW5       30.08F HX  95
MEMPHIS        PTSUNNY   92  66  42 E9        30.06F HX  94
MURFREESBORO   FAIR      88  67  49 NE9       30.08F HX  91
NASHVILLE      PTSUNNY   89  70  53 E6        30.08F HX  94
ROME           MOSUNNY   89  62  40 VRB6      30.07F
SAVANNAH       MOSUNNY   91  68  46 VRB3      30.09F HX  95
TUPELO         SUNNY     91  60  35 VRB7      30.07F HX  90
TUSCALOOSA     SUNNY     92  57  30 VRB3      30.05F HX  90
$$

...GULF COAST WEATHER...

CITY           SKY/WX    TMP DP  RH WIND       PRES   REMARKS
GULFPORT       MOSUNNY   89  71  55 SE20      30.01F HX  95
PASCAGOULA     HVY RAIN  82  74  76 S7        30.02F
MOBILE         PTSUNNY   91  68  46 NE8       30.03F HX  95
GULF SHORES    PTCLDY    88  72  59 SE14      30.02F HX  95
PENSACOLA      PTSUNNY   90  71  53 SE13      30.02F HX  96
DESTIN         SUNNY     89  70  53 S7        30.01F HX  94
PANAMA CITY    SUNNY     91  68  46 NE8       30.01F HX  95
APPALACHICOLA  MOSUNNY   87  69  54 S14       30.00F HX  91
$$



USA.gov is the U.S. government's official web portal to all federal, state and local government web resources and services.